Terminal Aerodrome Forecast
Issued by NWS King Salmon, AK

Home | Current Version | Previous Version | Text Only | Print | Product List | Glossary On
Versions: 1 2 3 4 5 6 7 8 9 10 11 12 13 14 15 16 17 18 19 20 21 22 23 24 25 26 27 28 29 30 31 32 33 34 35 36
000
FTAK31 PANC 201138
TAFAKN
TAF
PAKN 201138Z 2012/2112 VRB05KT P6SM -SHRA SCT030 BKN060
      TEMPO 2012/2014 5SM -RA BR
     FM201400 36003KT 2SM BR FEW001 SCT030
     FM201900 01006KT P6SM VCSH BKN060=

USA.gov is the U.S. government's official web portal to all federal, state and local government web resources and services.